Weather History for Clarinda, IA

Change the Weather History Date:

Wednesday, March 19, 2014

  Actual Average Record
Temperature  
Mean Temperature 40 °F -  
Max Temperature 50 °F 49 °F 71 °F (2012)
Min Temperature 28 °F 27 °F -99 °F (2002)
Degree Days  
Heating Degree Days 25    
Moisture  
Dew Point 27 °F    
Average Humidity 65    
Maximum Humidity 93    
Minimum Humidity 35    
Precipitation  
Precipitation 0.00 in - - ()
Sea Level Pressure  
Sea Level Pressure 30.00 in    
Wind  
Wind Speed 16 mph (NW)    
Max Wind Speed 23 mph    
Max Gust Speed 30 mph    
Visibility 10 miles    
Events Snow    
Averages and records for this station are not official NWS values.
T = Trace of Precipitation, MM = Missing Value Source: NWS Daily Summary

Daily Weather History Graph

Daily Weather History Graph

Search for Another Location

Airport:

Trip Planner

Search our weather history database for the weather conditions in past years. The results will help you decide how hot, cold, wet, or windy it might be!

Date:

Astronomy

Mar. 19, 2014 Rise Set
Actual Time 7:25 AM CDT 7:31 PM CDT
Civil Twilight 6:57 AM CDT 7:58 PM CDT
Nautical Twilight 6:25 AM CDT 8:30 PM CDT
Astronomical Twilight 5:53 AM CDT 9:03 PM CDT
Moon 10:51 PM CDT (3/19) 8:50 AM CDT (3/19)
Length of Visible Light 13h 00m
Length of Day
12h 06m
Waning Gibbous, 91% of the Moon is Illuminated
Mar 19
Waning Gibbous
Mar 23
Last Quarter
Mar 30
New
Apr 7
First Quarter
Apr 15
Full

Hourly Weather History & Observations

Time (CDT) Temp. Windchill Dew Point Humidity Pressure Visibility Wind Dir Wind Speed Gust Speed Precip Events Conditions
12:15 AM 35.6 °F 24.8 °F 32.0 °F 87% 29.72 in 10.0 mi NNW 19.6 mph 29.9 mph N/A   Overcast
12:35 AM 35.6 °F 26.2 °F 32.0 °F 87% 29.74 in 10.0 mi NNW 15.0 mph 25.3 mph N/A   Overcast
12:55 AM 35.6 °F 24.2 °F 30.2 °F 81% 29.74 in 10.0 mi NNW 21.9 mph - N/A   Overcast
1:15 AM 35.6 °F 24.5 °F 30.2 °F 81% 29.75 in 10.0 mi NNW 20.7 mph 28.8 mph N/A   Overcast
1:35 AM 35.6 °F 25.5 °F 30.2 °F 81% 29.76 in 10.0 mi NNW 17.3 mph 29.9 mph N/A   Overcast
1:55 AM 35.6 °F 24.8 °F 30.2 °F 81% 29.78 in 10.0 mi NNW 19.6 mph 27.6 mph N/A   Overcast
2:15 AM 33.8 °F 23.2 °F 30.2 °F 87% 29.79 in 10.0 mi NNW 17.3 mph 25.3 mph N/A   Overcast
2:35 AM 33.8 °F 23.2 °F 28.4 °F 81% 29.80 in 10.0 mi NNW 17.3 mph 25.3 mph N/A   Overcast
2:55 AM 33.8 °F 22.2 °F 28.4 °F 81% 29.80 in 10.0 mi NNW 20.7 mph - N/A   Overcast
3:15 AM 33.8 °F 23.2 °F 28.4 °F 81% 29.82 in 5.0 mi NW 17.3 mph 27.6 mph N/A Snow Light Snow
3:35 AM 32.0 °F 20.8 °F 30.2 °F 93% 29.83 in 4.0 mi NW 17.3 mph 24.2 mph N/A Snow Light Snow
3:55 AM 32.0 °F 19.8 °F 30.2 °F 93% 29.84 in 4.0 mi NW 20.7 mph 28.8 mph N/A Snow Light Snow
4:15 AM 32.0 °F 21.2 °F 30.2 °F 93% 29.85 in 5.0 mi NW 16.1 mph 24.2 mph N/A Snow Light Snow
4:35 AM 32.0 °F 20.1 °F 28.4 °F 87% 29.87 in 8.0 mi NW 19.6 mph 29.9 mph N/A Snow Light Snow
4:55 AM 33.8 °F 23.2 °F 28.4 °F 81% 29.88 in 10.0 mi NNW 17.3 mph 27.6 mph N/A   Overcast
5:10 AM 33.8 °F 23.2 °F 28.4 °F 81% 29.90 in 10.0 mi NNW 17.3 mph 25.3 mph N/A   Overcast
5:35 AM 33.8 °F 23.5 °F 28.4 °F 81% 29.92 in 10.0 mi NNW 16.1 mph 25.3 mph N/A   Overcast
5:55 AM 33.8 °F 23.5 °F 28.4 °F 81% 29.93 in 10.0 mi NW 16.1 mph 21.9 mph N/A   Overcast
6:15 AM 33.8 °F 23.9 °F 30.2 °F 87% 29.94 in 10.0 mi NW 15.0 mph 26.5 mph N/A   Overcast
6:35 AM 33.8 °F 22.2 °F 30.2 °F 87% 29.96 in 10.0 mi NW 20.7 mph 27.6 mph N/A   Overcast
6:55 AM 35.6 °F 25.2 °F 28.4 °F 75% 29.97 in 10.0 mi NW 18.4 mph 25.3 mph N/A   Overcast
7:15 AM 33.8 °F 21.6 °F 28.4 °F 81% 29.97 in 10.0 mi NW 23.0 mph - N/A   Overcast
7:35 AM 33.8 °F 23.5 °F 28.4 °F 81% 29.98 in 10.0 mi NNW 16.1 mph 27.6 mph N/A   Overcast
7:55 AM 33.8 °F 24.3 °F 28.4 °F 81% 30.00 in 10.0 mi NW 13.8 mph - N/A   Overcast
8:15 AM 33.8 °F 25.3 °F 28.4 °F 81% 30.01 in 10.0 mi NW 11.5 mph - N/A   Overcast
8:35 AM 33.8 °F 24.8 °F 28.4 °F 81% 30.01 in 10.0 mi NW 12.7 mph 18.4 mph N/A   Overcast
8:55 AM 33.8 °F 25.3 °F 26.6 °F 75% 30.03 in 10.0 mi NW 11.5 mph 23.0 mph N/A   Overcast
9:15 AM 33.8 °F 23.2 °F 26.6 °F 75% 30.04 in 10.0 mi NW 17.3 mph 24.2 mph N/A   Overcast
9:35 AM 33.8 °F 23.9 °F 26.6 °F 75% 30.05 in 10.0 mi NNW 15.0 mph 25.3 mph N/A   Overcast
9:55 AM 33.8 °F 23.2 °F 26.6 °F 75% 30.06 in 10.0 mi NW 17.3 mph 25.3 mph N/A   Overcast
10:15 AM 33.8 °F 23.9 °F 26.6 °F 75% 30.07 in 10.0 mi NNW 15.0 mph - N/A   Overcast
10:35 AM 35.6 °F 27.1 °F 28.4 °F 75% 30.08 in 10.0 mi NW 12.7 mph 18.4 mph N/A   Overcast
10:55 AM 37.4 °F 27.8 °F 26.6 °F 65% 30.08 in 10.0 mi NNW 17.3 mph 23.0 mph N/A   Overcast
11:15 AM 39.2 °F 30.5 °F 26.6 °F 61% 30.08 in 10.0 mi NNW 16.1 mph 23.0 mph N/A   Overcast
11:35 AM 41.0 °F 31.6 °F 26.6 °F 57% 30.09 in 10.0 mi NNW 20.7 mph 27.6 mph N/A   Mostly Cloudy
11:55 AM 41.0 °F 32.8 °F 26.6 °F 57% 30.09 in 10.0 mi NNW 16.1 mph 26.5 mph N/A   Mostly Cloudy
12:15 PM 42.8 °F 34.8 °F 26.6 °F 53% 30.10 in 10.0 mi NNW 17.3 mph 27.6 mph N/A   Scattered Clouds
12:35 PM 42.8 °F 35.4 °F 26.6 °F 53% 30.10 in 10.0 mi NW 15.0 mph 26.5 mph N/A   Mostly Cloudy
12:55 PM 42.8 °F 34.5 °F 26.6 °F 53% 30.10 in 10.0 mi NNW 18.4 mph 27.6 mph N/A   Mostly Cloudy
1:15 PM 44.6 °F 36.4 °F 24.8 °F 46% 30.10 in 10.0 mi NW 20.7 mph - N/A   Partly Cloudy
1:35 PM 44.6 °F 36.9 °F 26.6 °F 49% 30.10 in 10.0 mi NW 18.4 mph 24.2 mph N/A   Partly Cloudy
1:55 PM 46.4 °F 39.8 °F 26.6 °F 46% 30.10 in 10.0 mi NNW 16.1 mph 21.9 mph N/A   Partly Cloudy
2:15 PM 46.4 °F 40.4 °F 24.8 °F 43% 30.10 in 10.0 mi NW 13.8 mph - N/A   Clear
2:35 PM 46.4 °F 39.8 °F 24.8 °F 43% 30.09 in 10.0 mi NNW 16.1 mph - N/A   Clear
2:55 PM 48.2 °F - 24.8 °F 40% 30.09 in 10.0 mi WNW 10.4 mph 27.6 mph N/A   Scattered Clouds
3:15 PM 48.2 °F - 23.0 °F 37% 30.09 in 10.0 mi WNW 13.8 mph 23.0 mph N/A   Partly Cloudy
3:35 PM 48.2 °F - 23.0 °F 37% 30.08 in 10.0 mi NW 11.5 mph 20.7 mph N/A   Partly Cloudy
3:55 PM 50.0 °F - 23.0 °F 35% 30.08 in 10.0 mi West 15.0 mph - N/A   Clear
4:15 PM 50.0 °F - 23.0 °F 35% 30.07 in 10.0 mi West 16.1 mph - N/A   Clear
4:35 PM 50.0 °F - 24.8 °F 37% 30.07 in 10.0 mi West 16.1 mph - N/A   Clear
4:55 PM 50.0 °F - 24.8 °F 37% 30.07 in 10.0 mi NW 12.7 mph 21.9 mph N/A   Partly Cloudy
5:15 PM 50.0 °F - 24.8 °F 37% 30.07 in 10.0 mi WNW 16.1 mph - N/A   Scattered Clouds
5:35 PM 50.0 °F - 24.8 °F 37% 30.07 in 10.0 mi West 16.1 mph - N/A   Partly Cloudy
5:55 PM 50.0 °F - 24.8 °F 37% 30.07 in 10.0 mi WNW 13.8 mph 23.0 mph N/A   Clear
6:15 PM 50.0 °F - 24.8 °F 37% 30.07 in 10.0 mi WNW 11.5 mph 20.7 mph N/A   Clear
6:35 PM 50.0 °F - 26.6 °F 40% 30.08 in 10.0 mi WNW 11.5 mph 20.7 mph N/A   Partly Cloudy
6:55 PM 48.2 °F - 26.6 °F 43% 30.08 in 10.0 mi WNW 6.9 mph - N/A   Clear
7:15 PM 48.2 °F - 24.8 °F 40% 30.08 in 10.0 mi West 8.1 mph - N/A   Clear
7:35 PM 46.4 °F 43.5 °F 24.8 °F 43% 30.08 in 10.0 mi West 5.8 mph - N/A   Clear
7:55 PM 42.8 °F 40.1 °F 24.8 °F 49% 30.08 in 10.0 mi West 4.6 mph - N/A   Clear
8:15 PM 41.0 °F 39.0 °F 24.8 °F 53% 30.08 in 10.0 mi West 3.5 mph - N/A   Clear
8:35 PM 33.8 °F 30.8 °F 23.0 °F 65% 30.08 in 10.0 mi WSW 3.5 mph - N/A   Clear
8:55 PM 32.0 °F - 23.0 °F 69% 30.09 in 10.0 mi Calm Calm - N/A   Clear
9:15 PM 35.6 °F 31.7 °F 24.8 °F 65% 30.08 in 10.0 mi South 4.6 mph - N/A   Mostly Cloudy
9:35 PM 35.6 °F 31.7 °F 24.8 °F 65% 30.08 in 10.0 mi SSW 4.6 mph - N/A   Overcast
9:55 PM 33.8 °F - 24.8 °F 70% 30.08 in 10.0 mi Calm Calm - N/A   Overcast
10:15 PM 33.8 °F - 24.8 °F 70% 30.08 in 10.0 mi Calm Calm - N/A   Overcast
10:35 PM 32.0 °F - 24.8 °F 75% 30.08 in 10.0 mi Calm Calm - N/A   Overcast
10:55 PM 32.0 °F 27.5 °F 24.8 °F 75% 30.08 in 10.0 mi SSW 4.6 mph - N/A   Mostly Cloudy
11:15 PM 32.0 °F 28.7 °F 24.8 °F 75% 30.08 in 10.0 mi SSW 3.5 mph - N/A   Clear
11:35 PM 30.2 °F 26.7 °F 24.8 °F 80% 30.08 in 10.0 mi South 3.5 mph - N/A   Clear
11:55 PM 28.4 °F 24.6 °F 23.0 °F 80% 30.08 in 10.0 mi SSW 3.5 mph - N/A   Clear